Texas Shootout - LOFT FLY

Station: LOFT CHECK - T Race

Distance: 1 Miles    

Release: 07-Sep-2017 07:20

Weather Release:    Arrival:

Wind at Release:     Wind at Arrival:

Temp at Release: °    Temp at Arrival: °

Lofts: 162

Birds: 950

Clocked: 948

LOFT FLYING FOR THE LAST 2 DAYS
Drops Pos Breeder Pigeon Name Color Sex Ent Arrival Speed To Win Eligible
492 Tex-Mex Loft - TX 0658-AU17-NSL DGRZ C 15 2017-09-17 08:48:16.00 0.140 208:04:0 Yes
492 Carroll Hoover - PA 1131-IF17-RLPC MSPL C 3 2017-09-17 08:48:16.42 0.140 208:04:0 Yes
492 Richard Callahan - MO 41042-AU17-AA BB H 8 2017-09-17 08:48:16.83 0.140 208:04:0 Yes
492 Chen Loft - PA 1082-AU17-TFC BC C 9 2017-09-17 08:48:17.06 0.140 208:04:0 Yes
492 Sandstrom Brothers Loft - MN 0810-AU17-SBL BCPD H 4 2017-09-17 08:48:17.47 0.140 208:04:0 Yes
492 Arandas Loft - TX 14362-AU17-ARPU BC C 5 2017-09-17 08:48:17.80 0.140 208:04:0 Yes
492 Holleys Silver Star - TX 0934-AU17-DEN BC C 12 2017-09-17 08:48:18.30 0.140 208:04:0 Yes
492 Elton Dinga - TX 12133-AU17-AA BB H 37 2017-09-17 08:48:18.94 0.140 208:04:0 Yes
492 Drama Queen Loft - TX 1277-AU17-GCI BB H 3 2017-09-17 08:48:19.36 0.140 208:04:0 Yes
492 Baudy Loft - LA 1301-AU17-CRSO SLT H 1 2017-09-17 08:48:19.91 0.140 208:04:0 Yes
492 Sandstrom Brothers Loft - MN 0789-AU17-SBL BCPD H 6 2017-09-17 08:48:20.05 0.140 208:04:0 Yes
492 Baudy Loft - LA 1312-AU17-CRSO BC H 2 2017-09-17 08:48:20.19 0.140 208:04:0 Yes
492 Nemelka Racing Pigeon Loft - UT 7142-AU17-NRPL 4010 x Miss Beaut BC H 4 2017-09-17 08:48:20.74 0.140 208:04:0 Yes
492 Richard Callahan - MO 37933-AU17-AA DC C 7 2017-09-17 08:48:20.88 0.140 208:04:0 Yes
492 Y Mtn Loft - TN 0166-AU17-ARPU BC C 6 2017-09-17 08:48:21.02 0.140 208:04:0 Yes
492 Band Of Brothers - TX 0780-AU17-HOOK BB C 6 2017-09-17 08:48:21.16 0.140 208:04:0 Yes
492 Fleet Washington - DC 1784-AU17-FLTW BC H 4 2017-09-17 08:48:21.52 0.140 208:04:0 Yes
492 Baptista - IL 0023-AU17-BAPT DC C 3 2017-09-17 08:48:21.63 0.140 208:04:0 Yes
492 Barry Venn - WY 1939-AU17-VENN BCPD H 3 2017-09-17 08:48:21.66 0.140 208:04:0 Yes
492 Champ Camp - IN 0190-AU17-CHMP BB H 11 2017-09-17 08:48:21.99 0.140 208:04:0 Yes
492 Hollywood Honey - CA 0077-AU17-SD DC H 5 2017-09-17 08:48:22.49 0.140 208:04:0 Yes
492 Southern Legacy Loft - TX 2241-AU17-JOJO BB H 6 2017-09-17 08:48:22.74 0.140 208:04:0 Yes
492 King Rps Loft - CA 1453-AU17-FOYS BBWF C 2 2017-09-17 08:48:23.45 0.140 208:04:0 Yes
492 Tulsa Racers - OK 0767-AU17-TULS BBWF H 5 2017-09-17 08:48:23.74 0.140 208:04:0 Yes
492 Kim Wong - VT 10889-AU17-ARPU BC H 2 2017-09-17 08:48:23.95 0.140 208:04:0 Yes
492 Baden Feed - ON 90306-IF17-E GRIZ C 3 2017-09-17 08:48:24.14 0.140 208:04:0 Yes
492 Neighbor Hood Bullies - TX 0543-AU17-WF BB H 8 2017-09-17 08:48:24.30 0.140 208:04:0 Yes
492 Armando & Rameriz Loft - TX 0151-AU17-DAL BB H 6 2017-09-17 08:48:24.78 0.140 208:04:0 Yes
492 480 Volt Loft - TX 34094-AU17-AA BC C 3 2017-09-17 08:48:24.92 0.140 208:04:0 Yes
492 Liqingni Loft - NY 0287-AU17-YANG BB H 2 2017-09-17 08:48:24.99 0.140 208:04:0 Yes
492 Dekeratry Loft - TX 7482-AU17-HOT GRIZ H 2 2017-09-17 08:48:25.84 0.140 208:04:0 Yes
492 Sky Dancer Loft - TX 0343-AU17-WWC Lez Tango II BBWF C 2 2017-09-17 08:48:25.94 0.140 208:04:0 Yes
492 Wartick Loft - KS 0247-AU17-AIR DC H 3 2017-09-17 08:48:26.17 0.140 208:04:0 Yes
492 West Wing Syndicate - TX 28707-AU17-AA BC C 5 2017-09-17 08:48:26.36 0.140 208:04:0 Yes
492 Racine - WI 0594-AU17-RAC BB C 6 2017-09-17 08:48:26.41 0.140 208:04:0 Yes
492 Tulsa Racers - OK 0766-AU17-TULS BB H 4 2017-09-17 08:48:26.49 0.140 208:04:0 Yes
492 A D L Loft - IL 0167-AU17-ADL BB H 8 2017-09-17 08:48:26.67 0.140 208:04:0 Yes
492 Lee Family Loft - MS 2929-AU17-LEE MLY C 5 2017-09-17 08:48:26.69 0.140 208:04:0 Yes
492 Charlie Barbiere - NJ 1948-IF17-BSC BB H 3 2017-09-17 08:48:26.95 0.140 208:04:0 Yes
492 Hillbilly Loft - TX 17691-AU17-AA BB C 9 2017-09-17 08:48:27.19 0.140 208:04:0 Yes
492 Crestview Loft - TX 1340-AU17-CVL BBPD C 5 2017-09-17 08:48:27.55 0.140 208:04:0 Yes
492 Hugo Family Loft - IL 93088-IF17-E BB C 2 2017-09-17 08:48:27.56 0.140 208:04:0 Yes
492 Barry Venn - WY 1987-AU17-VENN BB C 2 2017-09-17 08:48:27.88 0.140 208:04:0 Yes
492 Dekeratry Loft - TX 7487-AU17-HOT BB H 4 2017-09-17 08:48:28.28 0.140 208:04:0 Yes
492 O & L De Vries - ON 2430-AU17-OL BB C 5 2017-09-17 08:48:28.44 0.140 208:04:0 Yes
492 French Camp Connection - CA 71985-AU17-MAN BB C 5 2017-09-17 08:48:28.52 0.140 208:04:0 Yes
492 Ecker/Murphy Syndicate - PA 1499-AU17-GSV DCWF H 9 2017-09-17 08:48:28.66 0.140 208:04:0 Yes
492 480 Volt Loft - TX 34100-AU17-AA DWFP H 5 2017-09-17 08:48:28.80 0.140 208:04:0 Yes
492 Highland Loft - NY 17159-AU17-DZ BC H 5 2017-09-17 08:48:28.84 0.140 208:04:0 Yes
492 Liu Loft - NC 8889-AU17-LIU BB C 6 2017-09-17 08:48:28.99 0.140 208:04:0 Yes
492 Sandstrom Brothers Loft - MN 0815-AU17-SBL BCPD H 5 2017-09-17 08:48:29.22 0.140 208:04:0 Yes
492 Little Reata Loft - TX 17341-AU17-JETT BCWF H 9 2017-09-17 08:48:29.25 0.140 208:04:0 Yes
492 Neighbor Hood Bullies - TX 72241-AU17-ARPU BB C 10 2017-09-17 08:48:29.34 0.140 208:04:0 Yes
492 Cbs & Steve - OK 1496-AU17-CBS BBWF H 5 2017-09-17 08:48:29.44 0.140 208:04:0 Yes
492 Dream Union - DC 1184-IF17-SLP BC C 5 2017-09-17 08:48:30.00 0.140 208:04:0 Yes
492 Hines Family Loft - SD 7057-AU17-GPF BC H 5 2017-09-17 08:48:30.31 0.140 208:04:0 Yes
492 Sky Dancer Loft - TX 0331-AU17-WWC Eva BBWF C 1 2017-09-17 08:48:30.41 0.140 208:04:0 Yes
492 Da Dong - WI 0352-AU17-RAC BB H 9 2017-09-17 08:48:31.36 0.140 208:04:0 Yes
492 Ledet-Gutrz - LA 17206-AU17-LEDE BB H 3 2017-09-17 08:48:31.52 0.140 208:04:0 Yes
492 Black Magic Loft - TX 0330-AU17-HCF BB C 3 2017-09-17 08:48:31.88 0.140 208:04:0 Yes
492 Cajun Express Loft - LA 0830-AU17-CEL BCWF H 3 2017-09-17 08:48:32.11 0.140 208:04:0 Yes
492 Sandstrom Brothers Loft - MN 0814-AU17-SBL BCPD H 8 2017-09-17 08:48:32.56 0.140 208:04:0 Yes
492 Champ Camp - IN 0215-AU17-CAMP BC H 9 2017-09-17 08:48:32.58 0.140 208:04:0 Yes
492 Milestone Loft - CA 0193-AU17-SDM CWFP H 6 2017-09-17 08:48:32.89 0.140 208:04:0 Yes
492 Skylinerpl.Com - UT 0966-AU17-UVI BC H 2 2017-09-17 08:48:33.39 0.140 208:04:0 Yes
492 Crowder Loft - TX 0738-AU17-GCI BB H 4 2017-09-17 08:48:33.81 0.140 208:04:0 Yes
492 Elton Dinga - TX 12116-AU17-AA BB C 41 2017-09-17 08:48:33.81 0.140 208:04:0 Yes
492 Kibria Rpl - TX 0070-AU17-DEN BC H 6 2017-09-17 08:48:33.95 0.140 208:04:0 Yes
492 Casale/Miner - CA 1712-AU17-VG BCPD H 3 2017-09-17 08:48:33.97 0.140 208:04:0 Yes
492 Dream Union - DC 1167-IF17-SLP BB C 1 2017-09-17 08:48:34.17 0.140 208:04:0 Yes
492 Rossi Loft Llc - WI 2111-AU17-KEN BB H 4 2017-09-17 08:48:34.28 0.140 208:04:0 Yes
492 Sandstrom Brothers Loft - MN 0788-AU17-SBL BC C 3 2017-09-17 08:48:34.50 0.140 208:04:0 Yes
492 Flying D Diva - TX 0194-AU17-FLYD BBPD H 5 2017-09-17 08:48:34.63 0.140 208:04:0 Yes
492 Franco Loft - TX 0745-AU17-DEN BB H 4 2017-09-17 08:48:34.83 0.140 208:04:0 Yes
492 Shallow Pockets - TX 0084-AU17-SHAL RC C 7 2017-09-17 08:48:34.86 0.140 208:04:0 Yes
492 Kwan Loft - CA 0795-AU17-KWAN BWFP H 2 2017-09-17 08:48:35.02 0.140 208:04:0 Yes
492 Lazy P Loft - TX 34103-AU17-AA BB C 5 2017-09-17 08:48:35.05 0.140 208:04:0 Yes
492 Da Dong - WI 0815-AU17-DONG BB C 6 2017-09-17 08:48:35.33 0.140 208:04:0 Yes
492 Richard Callahan - MO 37947-AU17-AA BC C 6 2017-09-17 08:48:35.83 0.140 208:04:0 Yes
492 Kim Wong - VT 10879-AU17-ARPU BC H 4 2017-09-17 08:48:36.06 0.140 208:04:0 Yes
492 Neighbor Hood Bullies - TX 0766-AU17-WF BB H 9 2017-09-17 08:48:36.08 0.140 208:04:0 Yes
492 Fleet Washington - DC 1780-AU17-FLTW BB C 3 2017-09-17 08:48:36.11 0.140 208:04:0 Yes
492 Liu Loft - NC 8887-AU17-LIU BB H 7 2017-09-17 08:48:36.49 0.140 208:04:0 Yes
492 Sandstrom Brothers Loft - MN 0787-AU17-SBL BCWF H 7 2017-09-17 08:48:36.56 0.140 208:04:0 Yes
492 Vick Corso - LA 1296-AU17-CRSO BC C 7 2017-09-17 08:48:36.91 0.140 208:04:0 Yes
492 Shiloft - PA 0069-IF17-MIN BC H 8 2017-09-17 08:48:36.99 0.140 208:04:0 Yes
492 Chen Loft - PA 0130-AU17-TFC BC H 8 2017-09-17 08:48:37.34 0.140 208:04:0 Yes
492 Da Dong - WI 1193-AU17-RRP BB C 2 2017-09-17 08:48:37.44 0.140 208:04:0 Yes
492 Zhenyuan Guo - SC 0687-AU17-GUO BC H 5 2017-09-17 08:48:37.63 0.140 208:04:0 Yes
492 Kanetzky & Vazquez Loft - TX 2664-AU17-TEX BC H 4 2017-09-17 08:48:37.83 0.140 208:04:0 Yes
492 Lechuga Loft - TX 0007-MX17-LECH RC C 2 2017-09-17 08:48:38.00 0.140 208:04:0 Yes
492 Flying D Loft - TX 0302-AU17-FLYD BB H 5 2017-09-17 08:48:38.03 0.140 208:04:0 Yes
492 Los Banditos - CA 2475-AU17-LB BNC H 3 2017-09-17 08:48:38.33 0.140 208:04:0 Yes
492 Arandas Loft - TX 14359-AU17-ARPU BB H 4 2017-09-17 08:48:38.41 0.140 208:04:0 Yes
492 Ledet-Gutrz - LA 17235-AU17-LEDE BB H 2 2017-09-17 08:48:38.55 0.140 208:04:0 Yes
492 Chinese Union 2 - VA 0678-AU17-ZHEN WHT H 6 2017-09-17 08:48:38.59 0.140 208:04:0 Yes
492 Bionic Loft - LA 0627-AU17-CAJN BB C 1 2017-09-17 08:48:38.64 0.140 208:04:0 Yes
492 Elton Dinga - TX 12105-AU17-AA BB H 36 2017-09-17 08:48:38.69 0.140 208:04:0 Yes
492 777 Victory Loft - NY 0154-AU17-NYLN BB C 2 2017-09-17 08:48:39.33 0.140 208:04:0 Yes
492 480 Volt Loft - TX 34106-AU17-AA BC H 4 2017-09-17 08:48:39.34 0.140 208:04:0 Yes

There are 1003 bird records

Note: These Race Results are unofficial and subject to change until verified by the Race Committee and declared final.